DW0345 Weather Reports


Display with metric or nautical units.
time (UTC)temp
F
wind
direction
speed
MPH
gust
MPH
rain 1hr
in
rain 24hr
in
rain mn
in
humidity
%
barometer
mb
20260507210800 85 178 3.0 5.0 0.00 0.00 0.00 41
20260507210239 85 228 4.0 5.0 0.00 0.00 0.00 41
20260507205734 85 73 2.0 7.0 0.00 0.00 0.00 42
20260507205256 85 192 3.0 7.0 0.00 0.00 0.00 41
20260507204735 85 317 1.0 7.0 0.00 0.00 0.00 41
20260507204305 84 359 3.0 7.0 0.00 0.00 0.00 41
20260507203740 84 158 3.0 8.0 0.00 0.00 0.00 41
20260507203232 84 116 5.0 8.0 0.00 0.00 0.00 40
20260507202811 84 120 3.0 9.0 0.00 0.00 0.00 40
20260507202254 84 113 5.0 8.0 0.00 0.00 0.00 39
20260507201734 84 61 4.0 6.0 0.00 0.00 0.00 39
20260507201240 84 112 3.0 7.0 0.00 0.00 0.00 40
20260507200740 84 140 3.0 7.0 0.00 0.00 0.00 39
20260507200235 84 43 5.0 7.0 0.00 0.00 0.00 39
20260507195736 83 104 3.0 9.0 0.00 0.00 0.00 40
20260507195235 83 105 5.0 9.0 0.00 0.00 0.00 40
20260507194756 83 95 3.0 7.0 0.00 0.00 0.00 40
20260507194238 83 238 3.0 8.0 0.00 0.00 0.00 42
20260507193738 82 120 3.0 7.0 0.00 0.00 0.00 42
20260507193238 81 67 2.0 9.0 0.00 0.00 0.00 42
20260507192731 82 91 4.0 9.0 0.00 0.00 0.00 42
20260507192252 81 87 3.0 8.0 0.00 0.00 0.00 42
20260507191751 81 249 2.0 7.0 0.00 0.00 0.00 42
20260507191254 81 159 4.0 7.0 0.00 0.00 0.00 43
20260507190733 80 329 2.0 7.0 0.00 0.00 0.00 43
20260507190252 80 96 3.0 7.0 0.00 0.00 0.00 43
20260507185750 80 160 4.0 7.0 0.00 0.00 0.00 43
20260507185231 79 115 4.0 7.0 0.00 0.00 0.00 44
20260507184810 79 135 2.0 6.0 0.00 0.00 0.00 44
20260507184316 79 204 3.0 8.0 0.00 0.00 0.00 45
20260507183752 79 90 3.0 7.0 0.00 0.00 0.00 44
20260507183252 79 104 3.0 6.0 0.00 0.00 0.00 45
20260507182733 78 121 3.0 6.0 0.00 0.00 0.00 45
20260507182240 78 79 3.0 7.0 0.00 0.00 0.00 46
20260507181741 78 89 4.0 8.0 0.00 0.00 0.00 45
20260507181309 78 79 3.0 8.0 0.00 0.00 0.00 45
20260507180744 78 359 1.0 7.0 0.00 0.00 0.00 47
20260507180316 77 137 3.0 8.0 0.00 0.00 0.00 47
20260507175733 76 71 3.0 8.0 0.00 0.00 0.00 48
20260507175242 76 77 2.0 7.0 0.00 0.00 0.00 48
20260507174803 76 45 3.0 7.0 0.00 0.00 0.00 48
20260507174231 75 63 3.0 6.0 0.00 0.00 0.00 49
20260507173732 75 63 3.0 5.0 0.00 0.00 0.00 50
20260507173251 75 210 2.0 5.0 0.00 0.00 0.00 50
20260507172752 75 64 2.0 5.0 0.00 0.00 0.00 50
20260507172232 74 26 2.0 5.0 0.00 0.00 0.00 51
20260507171754 74 49 1.0 5.0 0.00 0.00 0.00 51
20260507171254 74 56 3.0 5.0 0.00 0.00 0.00 50
20260507170732 74 127 3.0 5.0 0.00 0.00 0.00 51
20260507170253 73 84 1.0 3.0 0.00 0.00 0.00 53
20260507165733 72 276 1.0 4.0 0.00 0.00 0.00 54
20260507165238 72 106 3.0 6.0 0.00 0.00 0.00 53
20260507164800 72 87 4.0 6.0 0.00 0.00 0.00 53
20260507164234 72 28 2.0 4.0 0.00 0.00 0.00 54
20260507163748 71 359 1.0 4.0 0.00 0.00 0.00 55
20260507163251 71 108 2.0 5.0 0.00 0.00 0.00 54
20260507162812 71 27 3.0 4.0 0.00 0.00 0.00 55
20260507162232 71 99 2.0 3.0 0.00 0.00 0.00 57
20260507161730 70 230 1.0 4.0 0.00 0.00 0.00 58
20260507161250 69 235 0.0 4.0 0.00 0.00 0.00 58
20260507160732 69 307 1.0 4.0 0.00 0.00 0.00 58
20260507160233 69 103 1.0 3.0 0.00 0.00 0.00 60
20260507155731 68 216 1.0 3.0 0.00 0.00 0.00 61
20260507155300 67 216 1.0 3.0 0.00 0.00 0.00 62
20260507154740 67 255 1.0 3.0 0.00 0.00 0.00 64
20260507154231 66 236 2.0 4.0 0.00 0.00 0.00 65
20260507153752 65 239 2.0 4.0 0.00 0.00 0.00 66
20260507153251 65 218 2.0 4.0 0.00 0.00 0.00 67
20260507152751 64 215 1.0 3.0 0.00 0.00 0.00 67
20260507152235 64 229 0.0 3.0 0.00 0.00 0.00 67
20260507151757 64 228 1.0 3.0 0.00 0.00 0.00 68
20260507151255 64 214 1.0 4.0 0.00 0.00 0.00 68
20260507150736 64 239 1.0 4.0 0.00 0.00 0.00 68
20260507150244 63 228 2.0 3.0 0.00 0.00 0.00 69
20260507145732 63 228 2.0 3.0 0.00 0.00 0.00 69
20260507145241 63 231 1.0 3.0 0.00 0.00 0.00 70
20260507144801 63 207 0.0 3.0 0.00 0.00 0.00 71
20260507144248 62 196 2.0 3.0 0.00 0.00 0.00 72
20260507143745 62 224 1.0 3.0 0.00 0.00 0.00 73
20260507143247 61 251 0.0 0.0 0.00 0.00 0.00 74
20260507142748 61 251 0.0 0.0 0.00 0.00 0.00 75
20260507142231 61 354 0.0 0.0 0.00 0.00 0.00 76
20260507141752 61 354 0.0 0.0 0.00 0.00 0.00 78
20260507141231 60 354 0.0 0.0 0.00 0.00 0.00 80
20260507140734 58 354 0.0 0.0 0.00 0.00 0.00 81
20260507140233 58 354 0.0 0.0 0.00 0.00 0.00 81
20260507135754 57 354 0.0 0.0 0.00 0.00 0.00 82
20260507135231 57 354 0.0 0.0 0.00 0.00 0.00 82
20260507134733 56 354 0.0 0.0 0.00 0.00 0.00 82
20260507134236 55 354 0.0 1.0 0.00 0.00 0.00 82
20260507133738 55 320 0.0 1.0 0.00 0.00 0.00 82
20260507133309 55 320 0.0 1.0 0.00 0.00 0.00 82
20260507132750 54 324 0.0 2.0 0.00 0.00 0.00 82
20260507132252 54 324 0.0 3.0 0.00 0.00 0.00 82
20260507131754 54 328 0.0 2.0 0.00 0.00 0.00 82
20260507131238 54 248 0.0 0.0 0.00 0.00 0.00 82
20260507130739 54 248 0.0 0.0 0.00 0.00 0.00 81
20260507130251 54 233 0.0 1.0 0.00 0.00 0.00 81
20260507125807 54 233 0.0 1.0 0.00 0.00 0.00 81
20260507125232 54 300 0.0 1.0 0.00 0.00 0.00 81
20260507124732 54 300 0.0 1.0 0.00 0.00 0.00 81
20260507124240 54 300 0.0 0.0 0.00 0.00 0.00 81
20260507123738 54 300 0.0 1.0 0.00 0.00 0.00 81
20260507123254 54 300 0.0 1.0 0.00 0.00 0.00 81
20260507122736 54 300 0.0 1.0 0.00 0.00 0.00 81
20260507122250 55 300 0.0 1.0 0.00 0.00 0.00 81
20260507121733 55 300 0.0 0.0 0.00 0.00 0.00 81
20260507121249 55 300 0.0 1.0 0.00 0.00 0.00 81
20260507120752 55 300 0.0 1.0 0.00 0.00 0.00 81
20260507120253 55 300 0.0 0.0 0.00 0.00 0.00 81
20260507115735 55 300 0.0 0.0 0.00 0.00 0.00 80
20260507115247 55 300 0.0 0.0 0.00 0.00 0.00 80
20260507114747 55 300 0.0 0.0 0.00 0.00 0.00 81
20260507114253 55 300 0.0 0.0 0.00 0.00 0.00 80
20260507113817 55 300 0.0 0.0 0.00 0.00 0.00 80
20260507113254 55 300 0.0 0.0 0.00 0.00 0.00 80
20260507112734 55 300 0.0 0.0 0.00 0.00 0.00 79
20260507112253 55 300 0.0 0.0 0.00 0.00 0.00 79
20260507111735 55 300 0.0 0.0 0.00 0.00 0.00 79
20260507111235 55 300 0.0 0.0 0.00 0.00 0.00 79
20260507110756 55 300 0.0 0.0 0.00 0.00 0.00 79
20260507110235 55 300 0.0 0.0 0.00 0.00 0.00 79
20260507105734 55 300 0.0 0.0 0.00 0.00 0.00 79
20260507105232 55 300 0.0 0.0 0.00 0.00 0.00 79
20260507104734 55 300 0.0 0.0 0.00 0.00 0.00 79
20260507104250 56 300 0.0 1.0 0.00 0.00 0.00 79
20260507103812 56 300 0.0 1.0 0.00 0.00 0.00 79
20260507103235 56 300 0.0 0.0 0.00 0.00 0.00 78
20260507102734 56 300 0.0 0.0 0.00 0.00 0.00 78
20260507102238 56 300 0.0 0.0 0.00 0.00 0.00 78
20260507101734 56 300 0.0 0.0 0.00 0.00 0.00 78
20260507101230 56 300 0.0 1.0 0.00 0.00 0.00 77
20260507100751 56 300 0.0 1.0 0.00 0.00 0.00 77
20260507100233 56 300 0.0 1.0 0.00 0.00 0.00 77
20260507095734 56 300 0.0 1.0 0.00 0.00 0.00 77
20260507095239 57 300 0.0 1.0 0.00 0.00 0.00 76
20260507094739 57 300 0.0 0.0 0.00 0.00 0.00 76
20260507094249 57 300 0.0 1.0 0.00 0.00 0.00 76
20260507093731 57 300 0.0 1.0 0.00 0.00 0.00 76
20260507093235 57 300 0.0 1.0 0.00 0.00 0.00 76
20260507092757 57 300 0.0 1.0 0.00 0.00 0.00 76
20260507092246 57 300 0.0 2.0 0.00 0.00 0.00 76
20260507091747 57 300 1.0 2.0 0.00 0.00 0.00 76
20260507091311 57 324 0.0 1.0 0.00 0.00 0.00 75
20260507090749 57 324 0.0 2.0 0.00 0.00 0.00 75
20260507090253 58 324 0.0 3.0 0.00 0.00 0.00 75
20260507085754 58 324 1.0 3.0 0.00 0.00 0.00 75
20260507085238 58 332 0.0 2.0 0.00 0.00 0.00 75
20260507084740 58 332 0.0 3.0 0.00 0.00 0.00 75
20260507084236 58 332 1.0 4.0 0.00 0.00 0.00 75
20260507083757 58 333 2.0 4.0 0.00 0.00 0.00 75
20260507083237 58 323 1.0 4.0 0.00 0.00 0.00 75
20260507082738 58 328 0.0 0.0 0.00 0.00 0.00 75
20260507082248 58 354 0.0 0.0 0.00 0.00 0.00 74
20260507081748 58 354 0.0 0.0 0.00 0.00 0.00 74
20260507081245 58 354 0.0 0.0 0.00 0.00 0.00 74
20260507080747 58 354 0.0 0.0 0.00 0.00 0.00 73
20260507080250 58 354 0.0 0.0 0.00 0.00 0.00 73
20260507075731 59 354 0.0 0.0 0.00 0.00 0.00 73
20260507075300 59 354 0.0 0.0 0.00 0.00 0.00 73
20260507074800 59 31 0.0 0.0 0.00 0.00 0.00 72
20260507074254 59 31 0.0 0.0 0.00 0.00 0.00 72
20260507073752 59 31 0.0 0.0 0.00 0.00 0.00 72
20260507073233 59 31 0.0 0.0 0.00 0.00 0.00 71
20260507072735 59 31 0.0 0.0 0.00 0.00 0.00 71
20260507072238 60 31 0.0 0.0 0.00 0.00 0.00 70
20260507071739 60 31 0.0 0.0 0.00 0.00 0.00 70
20260507071258 60 31 0.0 1.0 0.00 0.00 0.00 70
20260507070756 60 31 0.0 1.0 0.00 0.00 0.00 69
20260507070252 61 54 0.0 1.0 0.00 0.00 0.00 69
20260507065752 61 54 0.0 1.0 0.00 0.00 0.00 69
20260507065232 61 54 0.0 1.0 0.00 0.00 0.00 68
20260507064732 62 54 0.0 2.0 0.00 0.00 0.00 68
20260507064252 62 54 1.0 3.0 0.00 0.00 0.00 69
20260507063812 62 60 2.0 3.0 0.00 0.00 0.00 68
20260507063235 62 68 2.0 5.0 0.00 0.00 0.00 68
20260507062737 62 90 2.0 5.0 0.00 0.00 0.00 68
20260507062305 62 80 2.0 2.0 0.00 0.00 0.00 67
20260507061810 62 85 1.0 3.0 0.00 0.00 0.00 67
20260507061252 62 80 0.0 3.0 0.00 0.00 0.00 67
20260507060753 63 77 1.0 3.0 0.00 0.00 0.00 67
20260507060239 63 87 2.0 4.0 0.00 0.00 0.00 66
20260507055757 63 85 2.0 4.0 0.00 0.00 0.00 66
20260507055238 63 76 2.0 4.0 0.00 0.00 0.00 66
20260507054759 63 81 2.0 5.0 0.00 0.00 0.00 65
20260507054236 63 80 3.0 6.0 0.00 0.00 0.00 65
20260507053756 63 82 3.0 6.0 0.00 0.00 0.00 65
20260507053256 63 91 3.0 5.0 0.00 0.00 0.00 65
20260507052736 63 81 3.0 5.0 0.00 0.00 0.00 64
20260507052247 64 88 4.0 6.0 0.00 0.00 0.00 64
20260507051808 64 84 2.0 5.0 0.00 0.00 0.00 64
20260507051231 64 93 4.0 6.0 0.00 0.00 0.00 64
20260507050754 64 84 2.0 7.0 0.00 0.00 0.00 63
20260507050236 64 62 4.0 7.0 0.00 0.00 0.00 63
20260507045738 64 79 3.0 7.0 0.00 0.00 0.00 63
20260507045249 64 97 4.0 7.0 0.00 0.00 0.00 63
20260507044729 65 75 4.0 5.0 0.00 0.00 0.00 63
20260507044234 65 81 3.0 6.0 0.00 0.00 0.00 63
20260507043757 65 77 4.0 7.0 0.00 0.00 0.00 63
20260507043238 65 85 4.0 7.0 0.00 0.00 0.00 63
20260507042758 65 58 2.0 5.0 0.00 0.00 0.00 63
20260507042253 65 79 3.0 6.0 0.00 0.00 0.00 63
20260507041815 65 53 3.0 6.0 0.00 0.00 0.00 63
20260507041234 65 71 2.0 5.0 0.00 0.00 0.00 63
20260507040736 66 84 3.0 5.0 0.00 0.00 0.00 63
20260507040314 66 77 3.0 7.0 0.00 0.00 0.00 63
20260507035730 66 99 4.0 7.0 0.00 0.00 0.00 63
20260507035242 66 80 5.0 7.0 0.00 0.00 0.00 62
20260507034746 66 73 3.0 6.0 0.00 0.00 0.00 62
20260507034230 66 75 2.0 5.0 0.00 0.00 0.00 62
20260507033734 66 59 3.0 5.0 0.00 0.00 0.00 61
20260507033240 66 335 2.0 6.0 0.00 0.00 0.00 60
20260507032740 66 341 2.0 6.0 0.00 0.00 0.00 60
20260507032245 66 314 3.0 5.0 0.00 0.00 0.00 60
20260507031748 66 334 2.0 4.0 0.00 0.00 0.00 59
20260507031233 67 330 2.0 5.0 0.00 0.00 0.00 59
20260507030755 67 346 3.0 7.0 0.00 0.00 0.00 59
20260507030238 67 346 4.0 7.0 0.00 0.00 0.00 58
20260507025741 67 326 3.0 6.0 0.00 0.00 0.00 58
20260507025232 67 325 4.0 6.0 0.00 0.00 0.00 57
20260507024734 68 323 3.0 6.0 0.00 0.00 0.00 57
20260507024252 68 328 2.0 4.0 0.00 0.00 0.00 57
20260507023733 69 311 2.0 4.0 0.00 0.00 0.00 56
20260507023230 69 339 1.0 6.0 0.00 0.00 0.00 56
20260507022753 69 322 4.0 6.0 0.00 0.00 0.00 55
20260507022235 70 305 2.0 5.0 0.00 0.00 0.00 55
20260507021737 70 324 3.0 5.0 0.00 0.00 0.00 54
20260507021236 71 309 2.0 5.0 0.00 0.00 0.00 54
20260507020737 71 307 2.0 7.0 0.00 0.00 0.00 54
20260507020250 71 306 4.0 7.0 0.00 0.00 0.00 54
20260507015754 71 310 4.0 8.0 0.00 0.00 0.00 54
20260507015235 71 306 4.0 8.0 0.00 0.00 0.00 53
20260507014755 72 311 3.0 8.0 0.00 0.00 0.00 53
20260507014235 72 266 3.0 9.0 0.00 0.00 0.00 52
20260507013731 72 321 5.0 9.0 0.00 0.00 0.00 52
20260507013248 73 284 5.0 8.0 0.00 0.00 0.00 51
20260507012749 74 268 2.0 5.0 0.00 0.00 0.00 51
20260507012230 74 311 2.0 7.0 0.00 0.00 0.00 50
20260507011733 74 284 3.0 9.0 0.00 0.00 0.00 50
20260507011238 74 321 4.0 9.0 0.00 0.00 0.00 49
20260507010742 75 282 3.0 10.0 0.00 0.00 0.00 49
20260507010240 75 285 5.0 10.0 0.00 0.00 0.00 49
20260507005744 76 320 6.0 10.0 0.00 0.00 0.00 48
20260507005250 76 293 4.0 10.0 0.00 0.00 0.00 48
20260507004732 76 293 5.0 9.0 0.00 0.00 0.00 47
20260507004238 76 291 2.0 9.0 0.00 0.00 0.00 48
20260507003800 77 314 6.0 10.0 0.00 0.00 0.00 47
20260507003230 76 275 5.0 11.0 0.00 0.00 0.00 47
20260507002749 76 285 6.0 11.0 0.00 0.00 0.00 47
20260507002251 76 295 4.0 9.0 0.00 0.00 0.00 47
20260507001751 77 310 4.0 9.0 0.00 0.00 0.00 46
20260507001254 78 317 6.0 9.0 0.00 0.00 0.00 45
20260507000735 77 276 2.0 11.0 0.00 0.00 0.00 46
20260507000234 78 320 6.0 11.0 0.00 0.00 0.00 45
20260506235730 78 306 3.0 10.0 0.00 0.00 0.00 44
20260506235233 78 287 2.0 13.0 0.00 0.00 0.00 45
20260506234754 78 354 7.0 13.0 0.00 0.00 0.00 44
20260506234257 79 281 4.0 8.0 0.00 0.00 0.00 44
20260506233738 78 244 3.0 12.0 0.00 0.00 0.00 44
20260506233312 79 314 7.0 12.0 0.00 0.00 0.00 43
20260506232730 80 248 6.0 9.0 0.00 0.00 0.00 42
20260506232235 80 318 3.0 8.0 0.00 0.00 0.00 42
20260506231738 79 303 2.0 11.0 0.00 0.00 0.00 43
20260506231249 80 243 5.0 11.0 0.00 0.00 0.00 43
20260506230730 81 288 3.0 9.0 0.00 0.00 0.00 42
20260506230249 81 325 2.0 10.0 0.00 0.00 0.00 42
20260506225749 81 264 6.0 10.0 0.00 0.00 0.00 42
20260506225252 81 272 4.0 10.0 0.00 0.00 0.00 42
20260506224815 80 312 6.0 10.0 0.00 0.00 0.00 42
20260506223756 79 293 6.0 13.0 0.00 0.00 0.00 43
20260506223235 80 310 6.0 14.0 0.00 0.00 0.00 43
20260506222756 80 326 6.0 14.0 0.00 0.00 0.00 42
20260506222233 81 337 4.0 10.0 0.00 0.00 0.00 42
20260506221733 83 310 6.0 10.0 0.00 0.00 0.00 40
20260506221236 82 249 3.0 9.0 0.00 0.00 0.00 41
20260506220737 82 289 2.0 11.0 0.00 0.00 0.00 40
20260506220255 82 295 5.0 11.0 0.00 0.00 0.00 40
20260506215754 82 291 4.0 8.0 0.00 0.00 0.00 40
20260506215230 81 256 4.0 10.0 0.00 0.00 0.00 41
20260506214750 81 326 5.0 10.0 0.00 0.00 0.00 40
20260506214231 81 338 4.0 8.0 0.00 0.00 0.00 40
20260506213733 81 354 4.0 8.0 0.00 0.00 0.00 40
20260506213253 80 308 2.0 8.0 0.00 0.00 0.00 41
20260506212752 79 265 3.0 8.0 0.00 0.00 0.00 41
20260506212253 79 104 3.0 5.0 0.00 0.00 0.00 40
20260506211754 78 145 2.0 3.0 0.00 0.00 0.00 40
20260506211253 78 158 1.0 7.0 0.00 0.00 0.00 40